Regional Weather Roundup
Issued by NWS Sterling, VA

Home | Current Version | Previous Version | Graphics & Text | Print | Product List | Glossary On
Versions: 1 2 3 4 5 6 7 8 9 10 11 12 13 14 15 16 17 18 19 20 21 22 23 24 25 26 27 28 29 30 31 32 33 34 35 36 37 38 39 40 41 42 43 44 45 46 47 48 49 50
000
ASUS41 KLWX 191210
RWRLWX

REGIONAL WEATHER ROUNDUP
NATIONAL WEATHER SERVICE BALTIMORE MD/WASHINGTON DC
800 AM EDT SUN APR 19 2015

Note: "FAIR" indicates few or no clouds below 12,000 feet
with no significant weather and/or obstructions to visibility.
 TC=TEMPERATURE CELSIUS

 * =Non NWS site. Station does not report precipitation (e.g. rain,
    snow, etc.), thunder, or fog.

DCZ001-MDZ009-015-VAZ040>042-051-053>054-191300-
WASHINGTON METRO

CITY           SKY/WX    TMP DP  RH WIND       PRES   REMARKS
WASHINGTON NAT CLOUDY    63  36  36 NE9       30.15R
DULLES         PTSUNNY   60  33  36 E9        30.14R
ANDREWS AFB    PTSUNNY   59  50  72 NE3       30.04S HAZE
FT BELVOIR     PTSUNNY   61  40  46 VRB2      30.14R
QUANTICO       PTSUNNY   62  42  47 E10       30.14R
COLLEGE PARK*  PTSUNNY   59  32  36 E6        30.15R
LEESBURG*      PTSUNNY   59  37  44 NE6       30.16R
MANASSAS*      SUNNY     61  37  41 E8        30.14R
GAITHERSBURG*  CLOUDY    57  30  35 E6        30.19R

$$

MDZ006>007-011-014-191300-
BALTIMORE METRO

CITY           SKY/WX    TMP DP  RH WIND       PRES   REMARKS
BWI AIRPORT    CLOUDY    59  34  39 E14       30.16R
MD SCIENCE CTR   N/A     60  29  30 MISG      30.18R
MARTIN STATE   CLOUDY    61  36  39 NE8       30.18R
ANNAPOLIS      CLOUDY    59  35  40 E7        30.16R
FORT MEADE*    CLOUDY    57  34  41 E7        30.18R

$$

MDZ012-015-019>023-191300-
MARYLAND EASTERN SHORE

CITY           SKY/WX    TMP DP  RH WIND       PRES   REMARKS
OCEAN CITY     PTSUNNY   53  45  74 NE14      30.15R
SALISBURY      PTSUNNY   56  43  61 E10       30.14R
BAY BRIDGE AP*   N/A     59  34  38 E13       30.16R

$$

MDZ017>025-191300-
SOUTHERN MARYLAND

CITY           SKY/WX    TMP DP  RH WIND       PRES   REMARKS
PATUXENT RIVER PTSUNNY   58  41  53 E10       30.14R
ST INIGOES     PTSUNNY   60  40  47 NE15G22   30.12R
LEONARDTOWN*   PTSUNNY   59  36  41 E12G20    30.16R

$$

MDZ003>005-191300-
NORTH CENTRAL MARYLAND

CITY           SKY/WX    TMP DP  RH WIND       PRES   REMARKS
FREDERICK*     SUNNY     54  34  47 NE6       30.19R
HAGERSTOWN APT CLOUDY    57  26  30 NE9       30.15R
WESTMINSTER*   CLOUDY    55  23  28 E8        30.17R

$$

MDZ501>502-191300-
WESTERN MARYLAND

CITY           SKY/WX    TMP DP  RH WIND       PRES   REMARKS
OAKLAND*       CLOUDY    48  34  57 E21G29    30.10R
CUMBERLAND*    CLOUDY    54  41  62 NW3       30.18R

$$

VAZ025>031-191300-
SHENANDOAH VALLEY

CITY           SKY/WX    TMP DP  RH WIND       PRES   REMARKS
WINCHESTER*    PTSUNNY   55  30  38 N3        30.14R
FRONT ROYAL*   NOT AVBL
LURAY*         FAIR      55  45  67 NE8       30.12R
NEW MARKET*    NOT AVBL
STAUNTON*      PTSUNNY   55  45  69 N9        30.11R
WAYNESBORO*    NOT AVBL

$$

WVZ021-048>050-054>055-191300-
EASTERN WEST VIRGINIA PANHANDLE

CITY           SKY/WX    TMP DP  RH WIND       PRES   REMARKS
MARTINSBURG    NOT AVBL
PETERSBURG*    NOT AVBL

$$

VAZ036>039-050-191300-
CENTRAL FOOTHILLS

CITY           SKY/WX    TMP DP  RH WIND       PRES   REMARKS
CHARLOTTESVILL PTSUNNY   59  44  57 NE12      30.08R
CULPEPER*      PTSUNNY   61  48  63 NE3       30.12R
ORANGE*        CLOUDY    59  50  72 N6        30.11S
GORDONSVILLE*  CLOUDY    58  48  70 NE3       30.09S
WARRENTON*     FAIR      61  46  58 E9G16     30.12R

$$

VAZ055>057-191300-
NORTH AND CENTRAL PIEDMONT

CITY           SKY/WX    TMP DP  RH WIND       PRES   REMARKS
FREDERICKSBRG* MOSUNNY   62  47  58 E9        30.11R
STAFFORD*      PTSUNNY   60  42  51 E13G18    30.16R

$$

NCZ024-NYZ072-PAZ021-071-VAZ022-071-191300-
OTHER REGIONAL OBSERVATIONS

CITY           SKY/WX    TMP DP  RH WIND       PRES   REMARKS
NEW YORK CITY  MOSUNNY   54  26  34 VRB7      30.26R
PHILADELPHIA   PTSUNNY   56  37  49 E10       30.22R
PITTSBURGH     CLOUDY    55  32  41 E10       30.06R
ROANOKE        CLOUDY    62  56  80 NE3       30.05S
RICHMOND       PTSUNNY   60  57  89 E8        30.08R
RALEIGH        CLOUDY    65  63  93 E6        30.03R

$$

ANZ530>537-191300-
MARINE OBSERVATIONS

STATION/POSITION TIME  TEMP    WIND        PRES
                       AIR SEA DIR/SP/G
                 (UTC) (F)     (DEG/KT/KT) (MB)
THOMAS PT LIGHT  1200   59 53   70/ 14/ 17 1022.0R
BALT KEY BRIDGE  1100   60      50/  8/  8 1020.6R
COVE POINT       1100   59     100/ 16/ 19 1019.5R
LEWISETTA        1100   60 62              1019.1R
SOLOMONS ISLAND  1100      56                N/A
PINEY POINT      1124           90/ 14/ 17   N/A

$$




USA.gov is the U.S. government's official web portal to all federal, state and local government web resources and services.